CZ-4B DEB

Satellite information

Favourite Embed

Satellite Type and Status

DEBRISIN ORBIT

Key statistics

Satellite CZ-4B DEB at a glance.

Uptime

2608

Days in orbit

Revolutions

≈ 14.3

Per day

Orbit

SSO

Sun Synchronous Orbit

Inclination

98.8

Latest

Satellite identification and parameters

Extended collection of information and parameters for CZ-4B DEB.

Object identification

Identified? True

Debris? True

Object name: CZ-4B DEB

International designator: 2018-081J

Object number (NORAD): 56088

Object ID (CCSDS): 56088

Country: PEOPLES REPUBLIC OF CHINA (PRC)

Current information (Y/N): Y

RCS size: SMALL

Orbital parameters

Period: 100.871 minutes

Inclination: 98.7698 deg

SMA: 7178.024 km

Apoapsis: 899.248 km

Periapsis: 700.531 km

RAAN: 139.6714 deg

Eccentricy: 0.01384203

Argument of periapsis: 64.9082 deg

Mean anomaly: 296.6391 deg

Mean motion: 14.27563319 rev/day

Mean motion (dot): 0.0001191 rev/day2

B* drag term: 0.0043818888 1/REarth

Two-line elements (TLE)

Creation date: Dec. 11, 2025, 7:14 p.m.

Reference frame: TEME

Reference center: EARTH

Epoch: Dec. 11, 2025, 8:54 a.m. UTC

TLE line 0: 0 CZ-4B DEB

TLE line 1: 1 56088U 18081J 25345.37105066 .00011910 00000-0 43819-2 0 9991

TLE line 2: 2 56088 98.7698 139.6714 0138420 64.9082 296.6391 14.27563319138913

Live tracking on map

Real-time ground track for satellite CZ-4B DEB.

In-orbit conjunctions

A list of the most updated potential collisions computed for object CZ-4B DEB.

Target Orbit TCA Probability of collision Miss distance Type
COSMOS 2441 SSO 2025-09-29 03:05:08 0.0002500363 513.0 (m) PAYLOAD
FENGYUN 1C DEB SSO 2025-07-25 00:16:25 0.0002791463 185.0 (m) DEBRIS
CZ-6A DEB LEO 2025-07-17 15:55:19 0.0003548214 202.0 (m) DEBRIS

Associated space launch

Haiyang is a series of Chinese marine remote sensing satellites. Haiyang 2B is a follow up to Haiyang 2A satellite. It is intended for monitoring the dynamic ocean environnement with microwave sensors to detect sea surface wind field, sea surface height and sea surface temperature.

CZ-4B DEB was lifted into orbit during the mission ‘Long March 4B | Haiyang 2B’, on board a Long March 4B space rocket.

The launch took place on Oct. 24, 2018, 10:57 p.m. from Launch Complex 9.

For more information about the launch, click the button.

Launch to space Long March 4B | Haiyang 2B
Long March 4B | Haiyang 2B

Agency: N/A

Status: Launch Successful

Launch date: Oct. 24, 2018, 10:57 p.m. UTC

Rocket: Long March 4B

Launch pad: Launch Complex 9

Location: Taiyuan Satellite Launch Center, People's Republic of China

...

Latest news about this satellite

There are no fresh news available about this satellite. Check back as we update our databases every day.


Newsletter sign-up

Weekly statistics, charts and insights to help you stay on top of the space industry.